User: anonymous   Login
Location: Twentynine Palms Airport
(34.1316°N, 115.9458°W)
Time: 08:29:10
(UTC-08:00)
Language:

Oscar 19 - Orbit

View from above orbital plane
View from above orbital plane
View from above satellite
View from above satellite

Ground track
Ground track

The orbit data is extracted from the following two-line orbital elements,

1 20442U 90005G   14325.29381848  .00000302  00000-0  12710-3 0  1108
2 20442 098.4933 259.9480 0012522 048.3688 311.8567 14.32630143297170
Epoch (UTC): 21 November 2014 07:03:05
Eccentricity: 0.0012522
inclination: 98.4933°
perigee height: 774 km
apogee height: 792 km
right ascension of ascending node: 259.9480°
argument of perigee: 48.3688°
revolutions per day: 14.32630143
mean anomaly at epoch: 311.8567°
orbit number at epoch: 29717

The dashed part of the orbit path shows where the satellite is in the earth's shadow,  

DLR